Вернуться в каталог

STARLINK-33719

АктивенСвязьVLEO
NORAD 63578·PAYLOAD·🇺🇸 United States

Запущен Apr 14, 2025 с Cape Canaveral Space Force Station

Loading…

Ближайшие Пролёты (ближайшие 24 часа)

TLE

СвежийSource: CelesTrak SupGP

Эпоха: Sep 14, 2026, 21:15 UTC

1 63578C 25076K   26257.88590278 -.00021235  00000+0 -76907-3 0  2571
2 63578  43.0036 333.1467 0001542 270.6631 185.8975 15.27590806    18

Отслеживайте STARLINK-33719 в реальном времени с AllMySat

Download on the App Store